Weather in Kalinovka

Russia / Khabarovsk Krai     51°32′41″N   139°42′27″E
temp.,
°C
wind,
m/s
gust,
m/s
humid.,
%
clouds,
%
prec.,
mm/h
press.,
hPa
HPBL,
m
29 september, wed
wed2901:00+10sse22865 0.0 101225
04:00+9sse228190 0.0 101120
07:00+9sse337811 0.0 101140
10:00+17sse2456100 0.0 1009311
13:00+21s3544100 0.0 10071564
16:00+22sw464950 0.0 10051230
19:00+16sse22720 0.0 100515
22:00+14se348281 0.0 100648
30 september, thu
thu3001:00+14se347865 0.0 100477
04:00+12sse228547 0.0 100328
07:00+12sse228995 0.0 100237
10:00+15ssw118197 0.2 100187
13:00+15w118978 0.7 100079
16:00+14w379298 3.3 1000437
19:00+11wsw347974 0.1 100267
22:00+9sw412700 0.1 1002423
1 october, fri
fri101:00+8wsw41166100 0.0 1003377
04:00+7sw4106293 0.0 1004378
07:00+6wsw396899 0.0 1005303
10:00+10wsw610490 0.0 10061134
13:00+13wsw710411 0.0 10061845
16:00+13wsw69402 0.0 10061750
19:00+8ssw33585 0.0 100827
22:00+6s34670 0.0 100847
2 october, sat
sat201:00+5s34705 0.0 100956
04:00+5ssw22755 0.0 100921
07:00+4ssw22802 0.0 101129
10:00+9wsw57572 0.0 1011925
13:00+11wsw46435 0.0 10111487
16:00+12wsw45404 0.0 10111613
19:00+6wsw22605 0.0 101215
22:00+4ssw11695 0.0 101311
3 october, sun
sun301:00+3wsw11725 0.0 101212
04:00+3wsw21735 0.0 101313
07:00+2sw22785 0.0 101414
10:00+7wsw34555 0.0 1014512
13:00+11w463979 0.0 10132061
16:00+11wnw683999 0.0 10142159
19:00+6wnw235991 0.1 101745
22:00+3sw226730 0.1 101718